Location: Key Biscayne
(25.6930°N, 80.1630°W)
Time: 10:45:48
(UTC-05:00)

Vanguard 1 - All Passes

Search period start: 21 November 2017 00:00
Search period end: 01 December 2017 00:00
Orbit: 650 x 3834 km, 34.2° (Epoch: 17 November)

Date Brightness Start Highest point End Pass type
(mag) Time Alt. Az. Time Alt. Az. Time Alt. Az.
21 Nov - 12:15:12 10° SSW 12:23:33 21° SSE 12:29:12 10° ESE daylight
21 Nov - 14:36:54 10° SW 14:45:19 70° SSE 14:50:25 10° ENE daylight
21 Nov - 17:00:56 10° W 17:05:46 35° NNW 17:09:50 10° NE daylight
21 Nov - 19:22:36 10° NW 19:26:43 36° NNE 19:31:46 10° E visible
21 Nov - 21:41:58 10° WNW 21:47:10 66° SSW 21:55:53 10° SE night (unlit)
22 Nov - 00:03:26 10° WSW 00:09:08 20° SSW 00:17:23 10° SSE night (unlit)
22 Nov - 12:35:04 10° SSW 12:45:03 31° SSE 12:51:11 10° E daylight
22 Nov - 14:58:17 10° WSW 15:06:24 84° NNW 15:11:22 10° ENE daylight
22 Nov - 17:22:33 10° WNW 17:27:00 30° N 17:30:55 10° ENE daylight
22 Nov - 19:43:33 10° WNW 19:47:51 47° NNE 19:53:27 10° E visible
22 Nov - 22:03:06 10° W 22:08:19 45° SSW 22:16:55 10° SE night (unlit)
23 Nov - 00:26:42 10° SW 00:30:47 13° SSW 00:35:52 10° S night (unlit)
23 Nov - 10:36:29 10° S 10:42:57 14° SSE 10:48:06 10° SE daylight
23 Nov - 12:55:32 10° SW 13:06:26 43° SSE 13:12:41 10° E daylight
23 Nov - 15:19:55 10° WSW 15:27:28 61° NNW 15:32:16 10° ENE daylight
23 Nov - 17:44:03 10° WNW 17:48:16 29° N 17:52:10 10° ENE visible
23 Nov - 20:04:29 10° WNW 20:08:55 66° NNE 20:15:01 10° ESE visible
23 Nov - 22:24:29 10° W 22:29:34 31° SSW 22:37:30 10° SSE night (unlit)
24 Nov - 10:54:41 10° SSW 11:04:46 21° SSE 11:11:44 10° ESE daylight
24 Nov - 13:16:28 10° SW 13:27:42 59° SSE 13:33:54 10° ENE daylight
24 Nov - 15:41:43 10° W 15:48:34 47° NNW 15:53:10 10° ENE daylight
24 Nov - 18:05:22 10° WNW 18:09:32 30° N 18:13:35 10° ENE visible
24 Nov - 20:25:25 10° WNW 20:29:57 84° SSW 20:36:25 10° ESE visible
24 Nov - 22:46:18 10° WSW 22:50:55 21° SSW 22:57:31 10° SSE night (unlit)
25 Nov - 11:14:11 10° SSW 11:26:26 29° SSE 11:34:05 10° E daylight
25 Nov - 13:37:47 10° WSW 13:48:53 79° SSE 13:54:55 10° ENE daylight
25 Nov - 16:03:34 10° W 16:09:45 38° NNW 16:14:07 10° NE daylight
25 Nov - 18:26:31 10° NW 18:30:45 36° NNE 18:35:04 10° E visible
25 Nov - 20:46:28 10° WNW 20:50:58 55° SSW 20:57:32 10° SE visible
25 Nov - 23:09:05 10° SW 23:12:22 14° SSW 23:16:27 10° S night (unlit)
26 Nov - 09:16:40 10° S 09:23:13 13° SSE 09:28:43 10° SE daylight
26 Nov - 11:34:24 10° SSW 11:47:59 39° SSE 11:55:49 10° E daylight
26 Nov - 13:59:24 10° WSW 14:10:01 81° NNW 14:15:51 10° ENE daylight
26 Nov - 16:25:23 10° WNW 16:30:59 33° N 16:35:09 10° ENE daylight
26 Nov - 18:47:33 10° WNW 18:51:55 48° NNE 18:56:33 10° E visible
26 Nov - 21:07:42 10° W 21:12:04 35° SSW 21:18:17 10° SE visible
27 Nov - 09:33:53 10° S 09:45:13 19° SSE 09:53:29 10° ESE daylight
27 Nov - 11:55:07 10° SW 12:09:24 52° SSE 12:17:11 10° ENE daylight
27 Nov - 14:21:15 10° WSW 14:31:08 63° NNW 14:36:45 10° ENE daylight
27 Nov - 16:47:03 10° WNW 16:52:16 32° N 16:56:19 10° ENE daylight
27 Nov - 19:08:33 10° WNW 19:12:58 70° NNE 19:17:56 10° ESE visible
27 Nov - 21:29:18 10° W 21:33:14 23° SSW 21:38:32 10° SSE night (unlit)
28 Nov - 09:52:54 10° SSW 10:07:03 27° SSE 10:16:23 10° E daylight
28 Nov - 12:16:15 10° SW 12:30:45 67° SSE 12:38:21 10° ENE daylight
28 Nov - 14:43:16 10° W 14:52:18 51° NNW 14:57:39 10° ENE daylight
28 Nov - 17:08:32 10° WNW 17:13:34 34° N 17:17:37 10° ENE daylight
28 Nov - 19:29:34 10° WNW 19:33:58 76° SSW 19:39:07 10° ESE visible
28 Nov - 21:51:41 10° WSW 21:54:29 14° SSW 21:57:53 10° S night (unlit)
29 Nov - 07:58:47 10° SSE 08:02:43 11° SSE 08:06:22 10° SE daylight
29 Nov - 10:12:45 10° SSW 10:28:44 36° SSE 10:38:28 10° E daylight
29 Nov - 12:37:45 10° WSW 12:51:59 84° SSE 12:59:22 10° ENE daylight
29 Nov - 15:05:19 10° W 15:13:32 43° NNW 15:18:37 10° ENE daylight
29 Nov - 17:29:50 10° WNW 17:34:49 40° N 17:38:59 10° E daylight
29 Nov - 19:50:45 10° WNW 19:54:56 45° SSW 20:00:00 10° SE visible
30 Nov - 08:13:33 10° S 08:24:54 17° SE 08:33:55 10° ESE daylight
30 Nov - 10:33:10 10° SW 10:50:19 46° SSE 11:00:06 10° E daylight
30 Nov - 12:59:35 10° WSW 13:13:12 79° NNW 13:20:18 10° ENE daylight
30 Nov - 15:27:20 10° WNW 15:34:50 39° N 15:39:39 10° ENE daylight
30 Nov - 17:51:00 10° WNW 17:56:00 52° NNE 18:00:18 10° E visible
30 Nov - 20:12:10 10° W 20:15:57 27° SSW 20:20:29 10° SSE visible
